Hanseatic Scout — V2BM2 — position and weather

sailwx.info

Track history (hours):
 
Tides and Currents Weather Stations Pressure Air Temp Water Temp Dewpoint Dewpoint Depression Visibility Wind Speed Wind Dir Waves Ship Positions

Hanseatic Scout

Last reported at 2014-Jul-31 04:19 UTC. Time now 2014-Jul-31 11:29 UTC.
Position N 50°34' W 000°35'.

Length 89 m; draft 6.3 m.

Type: Cargo ship. MMSI: 304867000.

Date/timePositionNaut miles runAvg speedWind from/ knotsBaromVisibWave heightAir tempDewpointWater temp
2014-Jul-31 04:19N 50°34' W 000°35'810.8
2014-Jul-31 03:33N 50°37' W 000°24'9 8.6
2014-Jul-31 02:33N 50°44' W 000°15'6 5.7
2014-Jul-31 01:32N 50°50' W 000°14'1 1.3
2014-Jul-31 00:32N 50°50' W 000°12'0 0.4
2014-Jul-30 23:32N 50°50' W 000°13'0 0.0
2014-Jul-30 22:33N 50°50' W 000°13'0 0.0
2014-Jul-30 21:33N 50°50' W 000°13'0 0.0
2014-Jul-30 20:30N 50°50' W 000°13'0 0.0
2014-Jul-30 19:33N 50°50' W 000°13'0 0.0
2014-Jul-30 07:31N 50°50' W 000°13'0 0.0
2014-Jul-30 06:31N 50°50' W 000°13'0 0.0
2014-Jul-30 04:16N 50°50' W 000°13'0 0.0
2014-Jul-30 03:31N 50°50' W 000°13'0 0.0
2014-Jul-30 02:31N 50°50' W 000°13'0 0.0
2014-Jul-30 01:31N 50°50' W 000°13'0 0.0
2014-Jul-30 00:31N 50°50' W 000°13'0 0.0
2014-Jul-29 23:31N 50°50' W 000°13'0 0.0
2014-Jul-29 22:31N 50°50' W 000°13'0 0.0
2014-Jul-29 21:31N 50°50' W 000°13'0 0.0
2014-Jul-29 20:31N 50°50' W 000°13'0 0.0
2014-Jul-29 19:25N 50°50' W 000°13'0 0.0
2014-Jul-29 18:31N 50°50' W 000°13'0 0.0
2014-Jul-29 17:31N 50°50' W 000°13'0 0.0
2014-Jul-29 16:31N 50°50' W 000°13'0 0.0
2014-Jul-29 15:31N 50°50' W 000°13'0 0.0
2014-Jul-29 14:31N 50°50' W 000°13'0 0.0
2014-Jul-29 13:31N 50°50' W 000°13'0 0.0
2014-Jul-29 12:31N 50°50' W 000°13'1 0.9
2014-Jul-29 11:33N 50°50' W 000°14'2 1.7
2014-Jul-29 10:08N 50°48' W 000°16'0 0.1
2014-Jul-29 09:33N 50°48' W 000°16'0 0.0
2014-Jul-29 08:33N 50°47' W 000°16'0 0.0
2014-Jul-29 07:33N 50°47' W 000°16'0 0.0
2014-Jul-29 06:30N 50°47' W 000°16'0 0.0
2014-Jul-29 05:27N 50°47' W 000°16'0 0.0
2014-Jul-29 04:24N 50°47' W 000°16'0 0.0
2014-Jul-29 02:33N 50°47' W 000°16'0 0.0
2014-Jul-29 01:30N 50°47' W 000°16'0 0.0
2014-Jul-29 00:33N 50°47' W 000°16'1 0.6
2014-Jul-28 23:33N 50°47' W 000°15'10 9.9
2014-Jul-28 22:33N 50°38' W 000°08'7 7.2
2014-Jul-28 21:33N 50°32' W 000°01'9 7.9
2014-Jul-28 20:28N 50°34' E 000°12'7 7.9
2014-Jul-28 19:33N 50°35' E 000°24'8 8.4
2014-Jul-28 18:33N 50°37' E 000°37'9 9.3
2014-Jul-28 17:33N 50°43' E 000°48'27 8.3
2014-Jul-28 14:20N 51°00' E 001°20'5 6.2
2014-Jul-28 13:33N 51°04' E 001°25'6 6.4
2014-Jul-28 12:33N 51°07' E 001°34'7 7.2
2014-Jul-28 11:33N 51°11' E 001°43'9 8.7
2014-Jul-28 10:33N 51°19' E 001°50'1010.4
2014-Jul-28 09:33N 51°28' E 001°59'1110.6
2014-Jul-28 08:33N 51°36' E 002°10'1110.4
2014-Jul-28 07:32N 51°44' E 002°21'10 9.7
2014-Jul-28 06:29N 51°52' E 002°32'8 8.7
2014-Jul-28 05:33N 51°58' E 002°40'8 7.8
2014-Jul-28 04:33N 52°04' E 002°48'7 7.3
2014-Jul-28 03:33N 52°09' E 002°56'7 7.1
2014-Jul-28 02:33N 52°15' E 003°04'8 7.3
2014-Jul-28 01:26N 52°21' E 003°13'8 8.4
2014-Jul-28 00:27N 52°27' E 003°21'9 8.3
2014-Jul-27 23:23N 52°31' E 003°34'8 9.3
2014-Jul-27 22:33N 52°31' E 003°47'9 9.4
2014-Jul-27 21:33N 52°31' E 004°02'9 9.2
2014-Jul-27 20:33N 52°30' E 004°17'9 8.7
2014-Jul-27 19:33N 52°28' E 004°31'5 5.4
2014-Jul-27 18:33N 52°28' E 004°40'1 0.6
2014-Jul-27 17:33N 52°28' E 004°40'0 0.0
2014-Jul-27 16:33N 52°28' E 004°40'0 0.0
2014-Jul-27 15:33N 52°28' E 004°40'0 0.0
2014-Jul-27 14:33N 52°28' E 004°40'0 0.0
2014-Jul-27 13:33N 52°28' E 004°40'0 0.0
2014-Jul-27 12:33N 52°28' E 004°40'0 0.0
2014-Jul-27 11:33N 52°28' E 004°40'0 0.0
2014-Jul-27 10:31N 52°28' E 004°40'0 0.0
2014-Jul-27 09:31N 52°28' E 004°40'0 0.0
2014-Jul-27 08:31N 52°28' E 004°40'0 0.0
2014-Jul-27 07:31N 52°28' E 004°40'0 0.2
2014-Jul-27 06:33N 52°28' E 004°40'3 3.1
2014-Jul-27 05:33N 52°28' E 004°35'9 9.0
2014-Jul-27 04:34N 52°28' E 004°20'9 9.1
2014-Jul-27 03:34N 52°32' E 004°07'9 8.6
2014-Jul-27 02:34N 52°40' E 004°00'9 9.1
2014-Jul-27 01:34N 52°48' E 003°53'9 9.0
2014-Jul-27 00:32N 52°56' E 003°45'30 8.9
2014-Jul-26 21:08N 53°25' E 003°32'610.4
2014-Jul-26 20:33N 53°31' E 003°35'1210.0
2014-Jul-26 19:20N 53°43' E 003°40'810.0
2014-Jul-26 18:29N 53°51' E 003°43'18 8.9
2014-Jul-26 16:26N 54°09' E 003°38'8 9.5
2014-Jul-26 15:33N 54°15' E 003°29'11 9.3
2014-Jul-26 14:25N 54°23' E 003°17'8 9.2
2014-Jul-26 13:34N 54°29' E 003°08'9 9.1
2014-Jul-26 12:33N 54°36' E 002°58'9 9.1
2014-Jul-26 11:33N 54°43' E 002°48'9 9.2
2014-Jul-26 10:33N 54°51' E 002°39'10 9.6
2014-Jul-26 09:34N 54°58' E 002°28'10 9.5
2014-Jul-26 08:33N 55°06' E 002°18'10 9.6
2014-Jul-26 07:33N 55°13' E 002°08'10 9.6
2014-Jul-26 06:33N 55°21' E 001°57'10 9.6
2014-Jul-26 05:33N 55°28' E 001°47'1010.1
2014-Jul-26 04:32N 55°36' E 001°35'1010.0
2014-Jul-26 03:33N 55°44' E 001°24'1110.1
2014-Jul-26 02:26N 55°53' E 001°11'910.1
2014-Jul-26 01:33N 55°59' E 001°01'1010.1
2014-Jul-26 00:33N 56°07' E 000°50'1010.0
2014-Jul-25 23:33N 56°15' E 000°38'10 9.8
2014-Jul-25 22:34N 56°22' E 000°27'10 9.6
2014-Jul-25 21:33N 56°30' E 000°16'10 9.6
2014-Jul-25 20:33N 56°37' E 000°05'10 9.8
2014-Jul-25 19:34N 56°45' W 000°06'10 9.7
2014-Jul-25 18:34N 56°53' W 000°17'10 9.6
2014-Jul-25 17:34N 57°00' W 000°27'9 9.3
2014-Jul-25 16:34N 57°08' W 000°38'9 9.4
2014-Jul-25 15:33N 57°15' W 000°49'10 9.5
2014-Jul-25 14:33N 57°22' W 001°01'10 9.8
2014-Jul-25 13:34N 57°30' W 001°12'1010.2
2014-Jul-25 12:33N 57°38' W 001°24'1110.6
2014-Jul-25 11:34N 57°46' W 001°36'1010.4
2014-Jul-25 10:34N 57°54' W 001°49'1110.2
2014-Jul-25 09:31N 58°02' W 002°02'1310.2
2014-Jul-25 08:13N 58°13' W 002°18'710.2
2014-Jul-25 07:31N 58°18' W 002°26'1010.3
2014-Jul-25 06:33N 58°26' W 002°38'10 9.8
2014-Jul-25 05:34N 58°33' W 002°49'9 8.9
2014-Jul-25 04:33N 58°40' W 003°00'6 6.1
2014-Jul-25 03:33N 58°43' W 003°11'7 7.4
2014-Jul-25 02:33N 58°42' W 003°25'7 6.9
2014-Jul-25 01:33N 58°42' W 003°39'8 8.0
2014-Jul-25 00:33N 58°42' W 003°54'8 8.3
2014-Jul-24 23:34N 58°41' W 004°10'9 8.5
2014-Jul-24 22:33N 58°41' W 004°26'9 8.8
2014-Jul-24 21:33N 58°40' W 004°43'9 9.3
2014-Jul-24 20:33N 58°39' W 005°01'1510.4
2014-Jul-24 19:05N 58°28' W 005°20'6 9.9
2014-Jul-24 18:31N 58°23' W 005°27'2010.3
2014-Jul-24 16:32N 58°06' W 005°49'10 9.7
2014-Jul-24 15:33N 57°59' W 005°59'101 5.9
2014-Jul-23 22:34N 56°18' W 005°47'4 0.2
2014-Jul-23 04:19N 56°16' W 005°53'9 9.5
2014-Jul-23 03:22N 56°11' W 006°07'2310.1
2014-Jul-23 01:07N 55°53' W 006°31'610.7
2014-Jul-23 00:33N 55°47' W 006°33'1110.7
2014-Jul-22 23:33N 55°37' W 006°29'1111.5
2014-Jul-22 22:34N 55°28' W 006°17'1010.1
2014-Jul-22 21:34N 55°23' W 006°01'1111.2
2014-Jul-22 20:34N 55°14' W 005°51'1110.8
2014-Jul-22 19:34N 55°03' W 005°45'1010.3
2014-Jul-22 18:34N 54°54' W 005°38'10 9.7
2014-Jul-22 17:34N 54°44' W 005°40'10 9.6
2014-Jul-22 16:33N 54°38' W 005°53'1 0.5
2014-Jul-22 15:06N 54°37' W 005°54'0 0.0
2014-Jul-22 09:09N 54°37' W 005°54'0 0.0
2014-Jul-22 08:24N 54°37' W 005°54'0 0.0
2014-Jul-22 07:26N 54°37' W 005°54'0 0.0
2014-Jul-22 06:30N 54°37' W 005°54'0 0.0
2014-Jul-22 05:33N 54°37' W 005°54'0 0.0
2014-Jul-22 04:33N 54°37' W 005°54'0 0.0
2014-Jul-22 03:33N 54°37' W 005°54'0 0.0
2014-Jul-22 02:34N 54°37' W 005°54'0 0.0
2014-Jul-22 01:33N 54°37' W 005°54'0 0.0
2014-Jul-22 00:31N 54°37' W 005°54'0 0.0
2014-Jul-21 23:33N 54°37' W 005°54'0 0.0
2014-Jul-21 22:33N 54°37' W 005°54'0 0.0
2014-Jul-21 21:33N 54°37' W 005°54'0 0.0
2014-Jul-21 20:33N 54°37' W 005°54'0 0.0
2014-Jul-21 20:18N 54°37' W 005°54'0 0.0
2014-Jul-21 19:15N 54°37' W 005°54'0 0.0
2014-Jul-21 18:29N 54°37' W 005°54'0 0.0
2014-Jul-21 17:31N 54°37' W 005°54'0 0.0
2014-Jul-21 16:33N 54°37' W 005°54'0 0.0
2014-Jul-21 15:32N 54°37' W 005°54'0 0.0
2014-Jul-21 14:28N 54°37' W 005°54'0 0.0
2014-Jul-21 13:21N 54°37' W 005°54'0 0.0
2014-Jul-21 12:14N 54°37' W 005°54'0 0.0
2014-Jul-21 11:22N 54°37' W 005°54'0 0.0
2014-Jul-21 10:31N 54°37' W 005°54'0 0.0
2014-Jul-21 09:29N 54°37' W 005°54'0 0.0
2014-Jul-21 08:19N 54°37' W 005°54'0 0.0
2014-Jul-21 07:29N 54°37' W 005°54'0 0.0
2014-Jul-21 06:28N 54°37' W 005°54'2 2.0
2014-Jul-21 05:33N 54°39' W 005°52'8 8.1
2014-Jul-21 04:33N 54°44' W 005°41'  
Track history (hours):
 
Tides and Currents Weather Stations Pressure Air Temp Water Temp Dewpoint Dewpoint Depression Visibility Wind Speed Wind Dir Waves Ship Positions

Hanseatic Scout

Last reported at 2014-Jul-31 04:19 UTC. Time now 2014-Jul-31 11:29 UTC.
Position N 50°34' W 000°35'.

Length 89 m; draft 6.3 m.

Type: Cargo ship. MMSI: 304867000.

Date/timePositionNaut miles runAvg speedWind from/ knotsBaromVisibWave heightAir tempDewpointWater temp
2014-Jul-31 04:19N 50°34' W 000°35'810.8
2014-Jul-31 03:33N 50°37' W 000°24'9 8.6
2014-Jul-31 02:33N 50°44' W 000°15'6 5.7
2014-Jul-31 01:32N 50°50' W 000°14'1 1.3
2014-Jul-31 00:32N 50°50' W 000°12'0 0.4
2014-Jul-30 23:32N 50°50' W 000°13'0 0.0
2014-Jul-30 22:33N 50°50' W 000°13'0 0.0
2014-Jul-30 21:33N 50°50' W 000°13'0 0.0
2014-Jul-30 20:30N 50°50' W 000°13'0 0.0
2014-Jul-30 19:33N 50°50' W 000°13'0 0.0
2014-Jul-30 07:31N 50°50' W 000°13'0 0.0
2014-Jul-30 06:31N 50°50' W 000°13'0 0.0
2014-Jul-30 04:16N 50°50' W 000°13'0 0.0
2014-Jul-30 03:31N 50°50' W 000°13'0 0.0
2014-Jul-30 02:31N 50°50' W 000°13'0 0.0
2014-Jul-30 01:31N 50°50' W 000°13'0 0.0
2014-Jul-30 00:31N 50°50' W 000°13'0 0.0
2014-Jul-29 23:31N 50°50' W 000°13'0 0.0
2014-Jul-29 22:31N 50°50' W 000°13'0 0.0
2014-Jul-29 21:31N 50°50' W 000°13'0 0.0
2014-Jul-29 20:31N 50°50' W 000°13'0 0.0
2014-Jul-29 19:25N 50°50' W 000°13'0 0.0
2014-Jul-29 18:31N 50°50' W 000°13'0 0.0
2014-Jul-29 17:31N 50°50' W 000°13'0 0.0
2014-Jul-29 16:31N 50°50' W 000°13'0 0.0
2014-Jul-29 15:31N 50°50' W 000°13'0 0.0
2014-Jul-29 14:31N 50°50' W 000°13'0 0.0
2014-Jul-29 13:31N 50°50' W 000°13'0 0.0
2014-Jul-29 12:31N 50°50' W 000°13'1 0.9
2014-Jul-29 11:33N 50°50' W 000°14'2 1.7
2014-Jul-29 10:08N 50°48' W 000°16'0 0.1
2014-Jul-29 09:33N 50°48' W 000°16'0 0.0
2014-Jul-29 08:33N 50°47' W 000°16'0 0.0
2014-Jul-29 07:33N 50°47' W 000°16'0 0.0
2014-Jul-29 06:30N 50°47' W 000°16'0 0.0
2014-Jul-29 05:27N 50°47' W 000°16'0 0.0
2014-Jul-29 04:24N 50°47' W 000°16'0 0.0
2014-Jul-29 02:33N 50°47' W 000°16'0 0.0
2014-Jul-29 01:30N 50°47' W 000°16'0 0.0
2014-Jul-29 00:33N 50°47' W 000°16'1 0.6
2014-Jul-28 23:33N 50°47' W 000°15'10 9.9
2014-Jul-28 22:33N 50°38' W 000°08'7 7.2
2014-Jul-28 21:33N 50°32' W 000°01'9 7.9
2014-Jul-28 20:28N 50°34' E 000°12'7 7.9
2014-Jul-28 19:33N 50°35' E 000°24'8 8.4
2014-Jul-28 18:33N 50°37' E 000°37'9 9.3
2014-Jul-28 17:33N 50°43' E 000°48'27 8.3
2014-Jul-28 14:20N 51°00' E 001°20'5 6.2
2014-Jul-28 13:33N 51°04' E 001°25'6 6.4
2014-Jul-28 12:33N 51°07' E 001°34'7 7.2
2014-Jul-28 11:33N 51°11' E 001°43'9 8.7
2014-Jul-28 10:33N 51°19' E 001°50'1010.4
2014-Jul-28 09:33N 51°28' E 001°59'1110.6
2014-Jul-28 08:33N 51°36' E 002°10'1110.4
2014-Jul-28 07:32N 51°44' E 002°21'10 9.7
2014-Jul-28 06:29N 51°52' E 002°32'8 8.7
2014-Jul-28 05:33N 51°58' E 002°40'8 7.8
2014-Jul-28 04:33N 52°04' E 002°48'7 7.3
2014-Jul-28 03:33N 52°09' E 002°56'7 7.1
2014-Jul-28 02:33N 52°15' E 003°04'8 7.3
2014-Jul-28 01:26N 52°21' E 003°13'8 8.4
2014-Jul-28 00:27N 52°27' E 003°21'9 8.3
2014-Jul-27 23:23N 52°31' E 003°34'8 9.3
2014-Jul-27 22:33N 52°31' E 003°47'9 9.4
2014-Jul-27 21:33N 52°31' E 004°02'9 9.2
2014-Jul-27 20:33N 52°30' E 004°17'9 8.7
2014-Jul-27 19:33N 52°28' E 004°31'5 5.4
2014-Jul-27 18:33N 52°28' E 004°40'1 0.6
2014-Jul-27 17:33N 52°28' E 004°40'0 0.0
2014-Jul-27 16:33N 52°28' E 004°40'0 0.0
2014-Jul-27 15:33N 52°28' E 004°40'0 0.0
2014-Jul-27 14:33N 52°28' E 004°40'0 0.0
2014-Jul-27 13:33N 52°28' E 004°40'0 0.0
2014-Jul-27 12:33N 52°28' E 004°40'0 0.0
2014-Jul-27 11:33N 52°28' E 004°40'0 0.0
2014-Jul-27 10:31N 52°28' E 004°40'0 0.0
2014-Jul-27 09:31N 52°28' E 004°40'0 0.0
2014-Jul-27 08:31N 52°28' E 004°40'0 0.0
2014-Jul-27 07:31N 52°28' E 004°40'0 0.2
2014-Jul-27 06:33N 52°28' E 004°40'3 3.1
2014-Jul-27 05:33N 52°28' E 004°35'9 9.0
2014-Jul-27 04:34N 52°28' E 004°20'9 9.1
2014-Jul-27 03:34N 52°32' E 004°07'9 8.6
2014-Jul-27 02:34N 52°40' E 004°00'9 9.1
2014-Jul-27 01:34N 52°48' E 003°53'9 9.0
2014-Jul-27 00:32N 52°56' E 003°45'30 8.9
2014-Jul-26 21:08N 53°25' E 003°32'610.4
2014-Jul-26 20:33N 53°31' E 003°35'1210.0
2014-Jul-26 19:20N 53°43' E 003°40'810.0
2014-Jul-26 18:29N 53°51' E 003°43'18 8.9
2014-Jul-26 16:26N 54°09' E 003°38'8 9.5
2014-Jul-26 15:33N 54°15' E 003°29'11 9.3
2014-Jul-26 14:25N 54°23' E 003°17'8 9.2
2014-Jul-26 13:34N 54°29' E 003°08'9 9.1
2014-Jul-26 12:33N 54°36' E 002°58'9 9.1
2014-Jul-26 11:33N 54°43' E 002°48'9 9.2
2014-Jul-26 10:33N 54°51' E 002°39'10 9.6
2014-Jul-26 09:34N 54°58' E 002°28'10 9.5
2014-Jul-26 08:33N 55°06' E 002°18'10 9.6
2014-Jul-26 07:33N 55°13' E 002°08'10 9.6
2014-Jul-26 06:33N 55°21' E 001°57'10 9.6
2014-Jul-26 05:33N 55°28' E 001°47'1010.1
2014-Jul-26 04:32N 55°36' E 001°35'1010.0
2014-Jul-26 03:33N 55°44' E 001°24'1110.1
2014-Jul-26 02:26N 55°53' E 001°11'910.1
2014-Jul-26 01:33N 55°59' E 001°01'1010.1
2014-Jul-26 00:33N 56°07' E 000°50'1010.0
2014-Jul-25 23:33N 56°15' E 000°38'10 9.8
2014-Jul-25 22:34N 56°22' E 000°27'10 9.6
2014-Jul-25 21:33N 56°30' E 000°16'10 9.6
2014-Jul-25 20:33N 56°37' E 000°05'10 9.8
2014-Jul-25 19:34N 56°45' W 000°06'10 9.7
2014-Jul-25 18:34N 56°53' W 000°17'10 9.6
2014-Jul-25 17:34N 57°00' W 000°27'9 9.3
2014-Jul-25 16:34N 57°08' W 000°38'9 9.4
2014-Jul-25 15:33N 57°15' W 000°49'10 9.5
2014-Jul-25 14:33N 57°22' W 001°01'10 9.8
2014-Jul-25 13:34N 57°30' W 001°12'1010.2
2014-Jul-25 12:33N 57°38' W 001°24'1110.6
2014-Jul-25 11:34N 57°46' W 001°36'1010.4
2014-Jul-25 10:34N 57°54' W 001°49'1110.2
2014-Jul-25 09:31N 58°02' W 002°02'1310.2
2014-Jul-25 08:13N 58°13' W 002°18'710.2
2014-Jul-25 07:31N 58°18' W 002°26'1010.3
2014-Jul-25 06:33N 58°26' W 002°38'10 9.8
2014-Jul-25 05:34N 58°33' W 002°49'9 8.9
2014-Jul-25 04:33N 58°40' W 003°00'6 6.1
2014-Jul-25 03:33N 58°43' W 003°11'7 7.4
2014-Jul-25 02:33N 58°42' W 003°25'7 6.9
2014-Jul-25 01:33N 58°42' W 003°39'8 8.0
2014-Jul-25 00:33N 58°42' W 003°54'8 8.3
2014-Jul-24 23:34N 58°41' W 004°10'9 8.5
2014-Jul-24 22:33N 58°41' W 004°26'9 8.8
2014-Jul-24 21:33N 58°40' W 004°43'9 9.3
2014-Jul-24 20:33N 58°39' W 005°01'1510.4
2014-Jul-24 19:05N 58°28' W 005°20'6 9.9
2014-Jul-24 18:31N 58°23' W 005°27'2010.3
2014-Jul-24 16:32N 58°06' W 005°49'10 9.7
2014-Jul-24 15:33N 57°59' W 005°59'101 5.9
2014-Jul-23 22:34N 56°18' W 005°47'4 0.2
2014-Jul-23 04:19N 56°16' W 005°53'9 9.5
2014-Jul-23 03:22N 56°11' W 006°07'2310.1
2014-Jul-23 01:07N 55°53' W 006°31'610.7
2014-Jul-23 00:33N 55°47' W 006°33'1110.7
2014-Jul-22 23:33N 55°37' W 006°29'1111.5
2014-Jul-22 22:34N 55°28' W 006°17'1010.1
2014-Jul-22 21:34N 55°23' W 006°01'1111.2
2014-Jul-22 20:34N 55°14' W 005°51'1110.8
2014-Jul-22 19:34N 55°03' W 005°45'1010.3
2014-Jul-22 18:34N 54°54' W 005°38'10 9.7
2014-Jul-22 17:34N 54°44' W 005°40'10 9.6
2014-Jul-22 16:33N 54°38' W 005°53'1 0.5
2014-Jul-22 15:06N 54°37' W 005°54'0 0.0
2014-Jul-22 09:09N 54°37' W 005°54'0 0.0
2014-Jul-22 08:24N 54°37' W 005°54'0 0.0
2014-Jul-22 07:26N 54°37' W 005°54'0 0.0
2014-Jul-22 06:30N 54°37' W 005°54'0 0.0
2014-Jul-22 05:33N 54°37' W 005°54'0 0.0
2014-Jul-22 04:33N 54°37' W 005°54'0 0.0
2014-Jul-22 03:33N 54°37' W 005°54'0 0.0
2014-Jul-22 02:34N 54°37' W 005°54'0 0.0
2014-Jul-22 01:33N 54°37' W 005°54'0 0.0
2014-Jul-22 00:31N 54°37' W 005°54'0 0.0
2014-Jul-21 23:33N 54°37' W 005°54'0 0.0
2014-Jul-21 22:33N 54°37' W 005°54'0 0.0
2014-Jul-21 21:33N 54°37' W 005°54'0 0.0
2014-Jul-21 20:33N 54°37' W 005°54'0 0.0
2014-Jul-21 20:18N 54°37' W 005°54'0 0.0
2014-Jul-21 19:15N 54°37' W 005°54'0 0.0
2014-Jul-21 18:29N 54°37' W 005°54'0 0.0
2014-Jul-21 17:31N 54°37' W 005°54'0 0.0
2014-Jul-21 16:33N 54°37' W 005°54'0 0.0
2014-Jul-21 15:32N 54°37' W 005°54'0 0.0
2014-Jul-21 14:28N 54°37' W 005°54'0 0.0
2014-Jul-21 13:21N 54°37' W 005°54'0 0.0
2014-Jul-21 12:14N 54°37' W 005°54'0 0.0
2014-Jul-21 11:22N 54°37' W 005°54'0 0.0
2014-Jul-21 10:31N 54°37' W 005°54'0 0.0
2014-Jul-21 09:29N 54°37' W 005°54'0 0.0
2014-Jul-21 08:19N 54°37' W 005°54'0 0.0
2014-Jul-21 07:29N 54°37' W 005°54'0 0.0
2014-Jul-21 06:28N 54°37' W 005°54'2 2.0
2014-Jul-21 05:33N 54°39' W 005°52'8 8.1
2014-Jul-21 04:33N 54°44' W 005°41'  

Dump ship's entire track history